Garden City, IA (50102)

6:51 PM CDT on August 29, 2016 (GMT -0500)
Prairie Ridge | | Change Station
Active Advisory: Special Statement

Elev 1010 ft 42.19 °N, 93.58 °W | Updated 11 seconds ago

Clear
Clear
72.9 °F
Feels Like 72.9 °F
N
0.0
Wind Variable Wind from ENE
Gusts 0.0 mph

Today
High -- | Low -- °F
--% Chance of Precip.
Yesterday
High -- | Low -- °F
Precip. -- in
Pressure 30.20 in
Visibility 10.0 miles
Clouds Clear
Dew Point 71 °F
Humidity 94%
Rainfall 0.02 in
Snow Depth Not available.
6:36 AM 7:51 PM
Waning Crescent, 6% visible
METAR KIFA 292335Z AUTO 15005KT 10SM CLR 23/20 A3020 RMK AO2 T02300200
Pressure 30.20 in
Visibility 10.0 miles
Clouds Clear
Dew Point 71 °F
Humidity 94%
Rainfall 0.02 in
Snow Depth Not available.
6:36 AM 7:51 PM
Waning Crescent, 6% visible
METAR KIFA 292335Z AUTO 15005KT 10SM CLR 23/20 A3020 RMK AO2 T02300200

10-Day Weather Forecast

Almanac

Astronomy

Aug. 29, 2016 Rise Set
Actual Time
Civil Twilight
Nautical Twilight
Astronomical Twilight
Moon
Length of Visible Light
Length of Day
Tomorrow will be .
, % of the Moon is Illuminated

Today's Extremes

State Highs State Lows

Community

WunderPhotos

Upload Photos

1,935,695 photos uploaded!

WunderBlog® & News

Nearby

Air Quality

  Air Quality AQ Index Pollutant
Not available.

Snow Depth

Station Depth Elevation

Earthquake Activity

City Distance Mag. Time & Date
Minimum magnitude displayed is 2.5.

Coastal Water Temperatures

Place Temperature

Stations

Nearby Weather Stations

Station Location Temp. Windchill Dew Point Humidity Wind Precip. Elev Updated Type
                   

Watches & Warnings

Special Statement
Issued: 1:37 PM CDT Aug. 29, 2016 – National Weather Service

... Conditions are favorable for funnel clouds...

Current atmospheric conditions support the development of funnel
clouds across much of Iowa this afternoon. Usually... these funnel
clouds can form from showers and weak thunderstorms. These funnels
are normally brief... drop only a few hundred feet from the cloud
base... and rarely become a tornado or cause damage. However... if
one is spotted... please immediately report it to the National
Weather Service. If a Tornado Warning would become
necessary... take appropriate action.


Small